Location: NJAA Observatory
(40.6819°N, 74.8979°W)
Time: 08:38:01
(UTC-04:00)

Iridium 4 - Visible Passes

Search period start: 29 August 2015 00:00
Search period end: 08 September 2015 00:00
Orbit: 773 x 777 km, 86.4° (Epoch: 29 August)

Date Brightness Start Highest point End Pass type
(mag) Time Alt. Az. Time Alt. Az. Time Alt. Az.
29 Aug 8.3 04:34:08 10° NNE 04:37:42 19° ENE 04:41:25 10° ESE visible
30 Aug 5.6 05:39:18 10° N 05:44:32 89° E 05:49:45 10° S visible
31 Aug 6.6 05:05:11 10° N 05:10:12 47° E 05:15:13 10° SSE visible
01 Sep 7.7 04:31:27 10° NNE 04:35:42 26° ENE 04:40:02 10° SE visible
02 Sep 8.4 03:58:30 10° NE 04:01:01 14° ENE 04:03:49 10° ESE visible
02 Sep 5.5 05:37:10 10° N 05:42:20 67° W 05:47:29 10° S visible
03 Sep 5.9 05:02:53 10° N 05:08:04 66° E 05:13:14 10° SSE visible
04 Sep 7.1 04:28:56 10° NNE 04:33:39 35° E 04:38:25 10° SSE visible
05 Sep 8.1 03:55:29 10° NNE 03:59:04 19° ENE 04:02:49 10° ESE visible
05 Sep 5.8 05:35:06 10° NNW 05:40:06 48° W 05:45:04 10° SSW visible
06 Sep 5.5 05:00:40 10° N 05:05:55 90° SE 05:11:07 10° S visible
07 Sep 6.5 04:26:33 10° N 04:31:34 48° E 04:36:35 10° SSE visible
